Location: Parc National du Mont-Orford
(45.3122°N, 72.2403°W)
Time: 18:45:36
(UTC-04:00)

Envisat - Visible Passes

Search period start: 21 April 2018 00:00
Search period end: 01 May 2018 00:00
Orbit: 764 x 766 km, 98.2° (Epoch: 21 April)

Date Brightness Start Highest point End Pass type
(mag) Time Alt. Az. Time Alt. Az. Time Alt. Az.
21 Apr 3.1 20:07:12 10° SSE 20:12:17 87° WSW 20:17:24 10° NNW visible
21 Apr 5.9 21:50:37 10° WSW 21:52:03 11° W 21:53:29 10° WNW visible
22 Apr 5.2 21:10:47 10° SSW 21:14:52 24° W 21:19:00 10° NW visible
23 Apr 3.9 20:32:59 10° S 20:37:55 51° W 20:42:52 10° NNW visible
24 Apr 5.7 21:38:04 10° WSW 21:40:45 14° W 21:43:26 10° NW visible
25 Apr 4.8 20:59:12 10° SSW 21:03:38 30° W 21:08:06 10° NNW visible
26 Apr 3.5 20:21:42 10° S 20:26:44 64° WSW 20:31:48 10° NNW visible
27 Apr 5.6 21:26:03 10° SW 21:29:28 18° W 21:32:53 10° NW visible
28 Apr 4.5 20:47:43 10° SSW 20:52:24 37° W 20:57:08 10° NNW visible
30 Apr 5.3 21:14:16 10° SW 21:18:12 22° W 21:22:08 10° NW visible
